RH
92 94 98 100 99 91 81 74 77 89 91 85 88 95 92 90 90 71 45 27 13 3 3 3 3 3 2 3 3 3 3 3 3 3 2 3 3 3 3 3 4 4 4 4 4 5 5 5 5 5 4 5 5 5 5 5 4 4 4 4 4 4 4 4 4 4 5 5 5 5 6 7 8 8 9 9 9 9 11 11 11 10 10 10 10 10 9 9
89 91 94 95 93 85 79 76 76 83 92 91 90 95 91 90 82 55 33 20 7 3 4 3 3 2 2 3 3 3 3 3 3 3 2 3 3 3 3 4 4 4 4 4 5 5 5 5 5 5 5 5 5 5 5 5 5 4 4 4 4 4 4 4 4 4 5 5 5 6 6 7 8 8 9 9 9 9 11 12 11 11 10 11 11 10 10 9
88 87 88 89 85 79 76 77 78 81 90 94 92 93 89 83 68 44 25 11 5 4 3 3 3 2 3 3 3 3 3 3 3 2 2 3 3 4 4 4 4 4 4 5 5 5 5 5 5 5 5 5 5 5 5 5 5 5 5 5 5 5 5 4 5 5 5 5 6 6 6 7 8 8 9 10 10 10 11 12 12 11 11 11 11 11 11 10
90 89 87 85 82 77 76 82 84 82 88 97 97 92 85 70 51 35 19 6 4 4 3 3 2 2 3 3 3 3 3 3 2 2 3 3 3 3 4 4 4 4 4 5 5 5 5 5 5 5 6 5 5 5 5 5 5 6 5 5 6 5 5 5 5 5 5 6 6 6 7 8 8 9 10 10 11 11 11 13 12 12 12 12 11 10 10 11
92 91 92 89 87 86 86 91 91 86 92 99 94 85 73 55 39 25 11 4 4 4 4 3 2 3 3 3 3 3 3 3 2 3 3 3 4 3 4 4 4 5 5 5 5 5 6 6 6 6 6 6 6 6 5 6 6 6 6 6 6 6 6 5 5 6 6 6 6 7 7 8 9 9 10 11 12 12 12 14 13 12 12 11 10 10 10 11
93 92 95 93 92 94 95 97 94 93 98 97 86 70 54 41 31 16 5 4 4 4 4 3 3 3 3 3 3 4 3 3 3 3 3 3 3 3 4 4 5 5 5 6 6 6 6 6 7 6 7 7 6 7 6 6 6 6 7 6 6 7 7 6 6 7 7 6 7 7 8 9 9 10 11 13 13 13 14 14 13 12 12 11 10 10 10 11
95 94 94 94 94 96 98 98 95 96 98 93 78 55 42 34 21 8 3 4 4 4 4 2 3 3 3 3 3 4 3 3 3 3 3 3 3 4 4 5 5 6 6 7 7 6 7 7 7 7 7 7 7 7 7 7 7 7 7 7 7 7 8 8 8 8 7 7 7 8 8 9 10 11 12 14 14 14 15 15 14 13 12 11 11 10 10 11
93 93 90 94 97 96 98 98 96 97 95 88 69 44 36 29 11 4 4 3 4 4 3 2 3 3 3 3 3 3 3 3 3 3 3 3 3 4 4 6 6 7 7 7 7 7 8 8 8 8 8 8 8 8 8 8 7 7 7 7 7 8 8 9 9 9 8 8 8 8 9 10 12 13 13 14 15 15 15 16 15 14 13 12 11 10 10 11
88 89 85 91 97 97 99 99 98 99 96 84 60 40 32 19 6 4 4 3 5 4 3 3 3 3 3 3 3 3 3 3 3 3 3 3 3 4 6 6 7 8 8 8 9 8 8 8 9 9 8 9 9 9 9 8 8 8 8 8 8 8 8 9 9 9 9 9 9 9 10 12 13 13 14 15 15 15 16 16 16 16 15 14 12 11 10 11
84 83 81 88 93 95 100 99 98 101 97 75 50 38 25 10 5 4 4 5 5 3 3 3 3 3 3 3 3 3 3 3 3 3 3 3 4 5 7 7 8 9 9 9 9 9 8 9 9 9 9 9 9 9 8 8 8 8 8 9 8 8 9 9 9 9 10 10 10 11 12 13 13 14 15 15 16 16 17 17 18 17 16 15 14 12 11 11
83 83 79 83 86 89 100 99 98 100 87 59 41 32 16 5 5 4 4 5 4 3 3 3 3 3 3 3 3 3 3 3 3 3 3 4 5 6 7 8 9 9 10 10 9 9 9 10 9 9 9 9 9 8 7 7 7 8 9 10 9 9 9 9 10 10 11 11 12 13 13 13 14 15 15 15 16 17 18 19 19 19 18 17 16 14 12 12
80 84 80 81 82 87 100 99 100 96 71 48 36 22 8 5 5 3 5 5 3 3 3 4 3 3 3 3 3 3 3 3 3 4 4 5 6 7 8 8 9 10 10 9 9 9 10 10 9 8 9 8 7 7 6 6 7 8 9 10 10 10 10 10 11 11 12 12 13 13 13 14 14 15 15 16 17 17 19 21 21 20 19 19 18 16 14 13
76 82 81 82 82 87 98 100 101 88 59 43 29 11 5 5 4 4 5 4 3 3 3 4 4 4 3 3 3 3 3 4 3 4 5 6 7 8 8 9 10 10 10 9 9 9 9 8 8 8 7 6 6 5 5 6 7 8 8 8 9 10 10 11 11 12 13 12 12 12 13 13 14 15 15 17 18 18 20 22 22 22 21 20 19 18 16 14
73 81 84 84 86 90 97 101 98 75 50 37 19 5 5 4 4 6 5 3 3 3 3 4 4 4 3 3 3 3 4 4 3 5 6 7 8 8 9 10 10 10 9 9 8 8 7 6 6 5 5 5 4 3 4 5 6 6 7 8 10 10 11 11 12 12 12 12 12 13 12 13 14 16 17 18 19 20 21 21 22 22 22 22 21 20 18 16
71 82 87 86 89 93 96 101 89 63 42 27 10 4 5 3 6 6 4 3 3 3 4 4 4 3 3 3 3 4 4 4 4 6 7 8 8 9 10 10 10 8 7 7 7 7 6 6 5 4 5 4 3 3 4 5 5 5 6 8 9 10 10 11 13 13 12 12 13 13 12 13 16 17 18 19 20 21 21 20 20 22 24 24 24 22 21 19
74 89 94 90 93 93 98 99 78 52 33 15 5 5 4 4 6 5 4 3 3 4 4 4 4 3 4 4 4 4 4 4 5 6 8 9 9 10 11 10 9 7 6 5 5 5 5 4 3 4 5 3 3 4 5 5 5 5 6 7 7 8 9 10 12 12 12 12 13 13 13 14 16 18 19 21 21 21 20 19 20 22 25 27 26 24 24 22
79 97 99 97 96 93 98 92 64 40 22 8 6 5 3 6 7 5 4 3 3 4 4 4 3 4 4 4 4 5 5 5 6 7 8 9 10 10 11 10 8 6 6 6 5 5 4 3 3 4 4 3 4 5 6 6 5 5 5 6 6 6 8 9 11 11 11 12 14 15 14 15 18 18 20 22 22 20 19 19 20 23 26 29 29 27 26 26
86 100 100 100 98 94 96 80 48 26 14 7 7 4 5 8 6 4 3 3 4 4 4 4 3 5 5 5 5 5 5 6 7 8 9 10 11 11 11 10 7 6 7 6 5 5 4 4 4 4 3 4 6 5 5 5 5 5 5 6 6 5 6 7 9 11 12 12 13 16 16 16 18 19 21 23 21 19 19 19 21 25 29 32 31 30 30 29
93 101 99 97 94 90 83 59 31 16 11 8 6 5 7 7 5 4 3 4 4 4 4 4 5 5 5 5 5 5 6 7 7 9 10 11 11 10 10 9 7 7 7 5 5 4 4 5 4 4 5 6 6 5 5 4 5 6 5 5 6 5 6 6 6 8 11 12 12 15 17 16 16 18 21 22 20 20 19 19 22 27 31 34 34 33 33 32
97 102 99 90 84 76 61 41 23 13 8 6 5 7 8 6 4 3 4 5 4 4 4 5 6 5 5 6 6 6 7 7 9 9 10 11 11 11 10 9 9 8 6 5 5 6 5 5 4 5 6 6 5 4 4 5 5 5 5 6 6 6 6 6 6 6 8 11 13 14 16 15 14 17 20 21 21 20 20 19 23 30 34 37 37 37 36 36
94 99 98 87 76 63 45 31 20 11 7 5 6 8 6 4 4 3 4 5 4 4 5 5 6 6 6 6 7 7 7 8 10 10 10 11 11 11 11 11 10 8 6 5 6 6 5 5 5 5 5 5 4 4 4 4 5 5 5 5 6 7 7 6 6 6 7 10 14 15 15 15 14 17 21 21 21 21 20 21 26 33 38 39 39 39 39 39
95 98 97 81 64 48 35 27 18 10 8 7 7 7 5 4 4 4 5 4 4 5 5 6 6 6 7 7 7 8 8 10 11 10 10 11 12 11 11 12 10 8 7 6 6 6 5 5 6 5 5 5 4 4 4 4 5 4 5 5 6 6 7 8 7 6 6 8 13 16 17 16 14 18 21 21 22 22 21 24 30 36 39 41 42 41 42 42
99 98 90 70 51 40 32 23 14 9 8 7 7 5 4 4 4 5 5 5 5 5 6 6 7 8 8 8 8 9 10 11 10 10 11 11 12 12 12 12 10 9 8 7 7 6 6 6 6 5 5 5 5 4 4 4 4 5 5 5 6 6 7 8 9 9 8 7 9 13 18 19 17 19 22 21 22 23 23 28 34 39 40 42 43 44 44 44
95 88 76 61 48 36 25 15 9 8 7 7 7 5 4 4 5 5 5 5 5 6 6 7 8 8 8 8 9 10 10 10 11 11 11 12 13 13 13 12 10 10 9 9 9 8 7 7 6 6 6 5 5 5 5 4 4 5 6 6 6 7 6 7 8 10 11 9 8 11 16 20 19 20 22 23 23 24 26 32 37 40 41 43 44 45 45 45
85 73 60 50 39 25 14 9 7 8 8 7 5 4 4 4 5 5 5 5 5 6 7 7 8 9 9 9 9 11 10 10 12 12 11 12 13 13 13 12 12 11 11 11 10 10 9 9 8 8 7 7 7 7 7 6 5 5 5 6 6 6 7 7 7 9 11 10 10 11 11 15 21 22 23 24 25 26 28 34 40 41 42 43 45 46 46 46
73 62 50 38 26 15 9 7 7 8 7 6 4 4 4 4 5 5 5 6 6 7 7 9 9 9 10 10 10 11 11 11 11 11 11 12 12 12 13 13 12 12 12 12 11 10 10 10 10 9 9 9 9 9 9 8 8 7 6 7 7 7 8 8 9 9 11 11 12 13 11 13 21 23 24 26 27 28 30 36 42 44 44 45 46 47 48 48
56 48 39 28 16 9 7 7 7 8 6 4 4 4 4 5 5 5 6 6 6 7 8 8 9 9 10 10 10 11 11 11 11 11 11 11 12 12 12 12 12 12 13 13 12 11 11 12 11 10 10 10 11 10 10 10 10 10 9 8 9 10 9 9 11 10 12 14 15 16 13 13 20 21 22 28 30 30 33 37 43 47 47 47 48 48 49 49
30 25 20 15 9 7 7 7 7 7 5 4 4 4 5 5 5 5 6 6 6 7 8 8 9 9 10 10 11 11 11 11 11 11 11 11 11 11 11 12 12 12 13 14 14 13 12 13 13 11 11 10 11 11 10 11 12 12 12 11 10 11 10 11 12 13 14 16 17 17 14 15 22 24 24 29 32 32 34 39 44 48 49 49 49 49 50 51
17 12 10 8 7 7 6 7 7 6 5 4 4 5 5 5 5 5 6 6 7 8 8 9 9 9 10 10 11 11 11 11 11 11 10 10 10 10 11 11 11 12 13 15 15 15 15 15 14 14 13 12 11 11 11 11 12 13 13 13 13 12 12 13 13 15 16 17 18 18 16 17 22 25 26 30 33 34 37 41 45 48 49 50 50 50 52 53
19 12 9 7 6 6 6 7 7 5 5 4 5 5 5 5 5 5 6 6 8 8 8 8 8 9 9 10 10 11 11 10 10 10 10 10 10 10 10 10 10 11 13 15 16 17 17 17 17 16 16 15 13 13 13 12 12 12 13 14 14 14 14 14 14 17 18 17 18 19 20 24 24 24 28 34 36 39 40 43 46 47 50 52 52 52 54 54
18 10 7 6 6 6 6 6 6 5 5 4 5 5 5 5 5 5 6 7 8 8 7 7 8 8 9 9 10 10 10 10 10 10 9 10 9 9 9 9 10 10 12 15 17 18 18 18 19 18 19 18 17 16 16 16 14 13 13 13 14 16 15 15 15 17 20 20 18 19 23 30 32 31 34 38 40 43 45 45 46 47 50 53 54 55 55 54
10 7 6 6 6 6 6 6 6 5 5 5 5 5 5 5 5 6 6 6 8 8 8 7 7 8 8 9 9 9 9 9 9 9 9 9 9 9 9 8 9 10 11 15 17 19 19 19 20 20 21 20 20 19 19 19 18 17 16 15 15 15 14 15 15 16 22 26 25 24 24 30 38 40 41 44 44 46 48 46 46 48 50 54 57 57 56 55
7 6 6 5 5 6 6 6 6 5 5 5 5 6 5 6 6 6 6 6 7 8 8 7 7 7 7 8 8 8 9 9 9 9 8 9 8 8 8 8 8 9 10 13 16 19 20 20 20 20 21 21 21 21 20 21 22 21 19 17 16 16 15 16 16 15 20 26 30 31 30 32 39 44 44 46 48 48 49 48 49 50 51 53 57 59 58 57
6 6 5 5 6 6 7 7 6 5 5 5 6 6 6 6 6 6 6 7 7 7 7 7 7 7 7 7 8 8 8 8 8 8 8 8 8 8 8 8 8 8 10 12 15 18 20 21 21 21 21 22 22 22 22 22 23 24 23 20 20 22 21 22 22 20 19 24 30 35 37 37 40 44 46 48 49 48 49 50 51 51 51 52 54 57 60 60
6 6 5 6 7 7 7 6 5 5 5 6 6 6 6 6 6 6 7 7 7 7 7 7 7 7 7 7 7 8 8 8 8 8 8 8 8 8 8 8 8 8 10 12 14 17 19 21 21 21 21 21 23 24 25 25 26 27 26 25 25 26 27 27 27 26 23 24 29 32 35 37 39 44 47 49 50 49 49 51 52 51 50 51 52 55 60 63
6 5 6 8 8 8 7 6 5 5 5 6 6 6 6 6 7 7 7 7 7 7 7 7 7 7 7 7 7 7 7 7 8 8 8 8 8 8 8 8 9 9 10 12 15 17 19 21 21 21 21 22 24 26 28 29 30 31 31 30 29 29 31 31 29 28 26 25 29 35 35 31 32 41 46 48 52 52 50 50 50 49 49 49 51 53 56 60
6 6 7 8 8 8 6 6 6 5 6 6 6 6 6 6 6 6 7 7 7 7 7 7 7 7 7 7 7 8 8 8 8 8 8 8 8 8 9 9 9 11 12 14 16 17 18 20 21 21 22 24 25 28 31 33 35 36 37 36 34 32 34 34 32 31 30 27 28 38 45 38 32 40 49 51 54 55 52 50 49 48 48 49 51 52 52 54
5 6 8 8 8 7 6 6 6 5 6 6 6 6 6 6 6 6 7 6 6 7 6 7 7 8 8 8 9 9 9 9 9 9 9 9 9 9 10 10 11 12 13 15 16 17 18 20 21 22 23 25 27 30 33 37 38 40 42 43 42 39 39 40 39 36 34 32 28 32 46 53 46 47 56 58 56 56 52 50 49 49 50 51 50 51 51 51
5 7 8 8 8 7 6 7 6 6 6 6 6 6 6 6 6 6 6 6 6 7 7 8 9 9 10 10 10 11 11 11 11 11 11 10 11 11 11 12 13 14 15 16 17 18 19 20 22 23 24 26 29 31 35 38 40 42 45 47 48 46 44 44 45 44 42 40 36 31 38 56 59 55 61 63 59 57 53 50 52 52 53 54 53 51 51 50
6 7 9 8 8 7 7 6 6 6 6 6 6 6 6 6 6 6 6 7 8 8 9 9 9 9 10 10 10 11 11 12 12 12 12 12 12 12 13 14 15 15 16 17 18 19 20 21 23 25 25 27 30 32 35 39 43 45 47 49 52 52 49 46 47 50 49 47 48 42 37 55 69 63 63 67 61 58 55 52 55 55 54 55 54 53 50 48
7 9 9 8 7 7 6 6 6 6 6 6 6 6 6 6 6 7 8 8 9 9 9 9 9 9 10 10 11 11 12 13 13 13 13 14 14 14 15 16 16 17 18 19 20 21 21 22 24 26 28 30 31 33 36 41 46 49 50 51 54 56 55 53 51 52 54 52 54 52 43 54 73 69 64 68 64 60 59 56 57 57 53 53 54 54 51 47
9 9 8 7 7 6 6 6 6 6 6 6 6 6 6 6 7 8 9 9 9 9 9 9 10 10 11 12 12 12 13 13 14 14 14 15 15 16 17 18 19 20 20 21 22 22 22 22 23 26 30 32 33 34 36 40 46 52 53 53 55 60 61 61 59 56 56 56 56 57 48 52 73 76 66 67 66 63 63 60 59 59 53 53 55 55 52 48
9 8 7 7 7 6 6 6 6 6 6 5 5 6 7 8 9 9 8 9 9 9 10 10 11 12 12 13 13 14 14 13 14 16 16 17 17 18 19 20 21 21 22 23 23 23 23 23 23 24 28 33 36 38 37 38 46 54 58 58 58 63 65 65 65 62 60 60 61 63 55 51 71 81 72 69 68 65 67 64 61 59 54 54 58 57 53 48
8 7 7 7 6 6 6 6 6 6 5 6 6 7 9 9 9 8 8 9 9 10 11 12 13 13 13 14 14 14 14 14 16 17 17 18 18 19 20 20 21 22 22 22 22 22 23 24 25 23 24 27 30 33 33 34 45 53 58 60 57 61 67 67 67 65 62 61 63 70 64 54 70 86 79 74 73 70 71 68 62 61 57 57 61 58 51 47
7 7 7 7 7 7 6 6 6 6 6 7 8 9 9 8 8 9 9 10 11 12 12 13 13 13 14 14 14 15 16 16 17 17 18 19 18 19 20 20 21 21 21 21 21 22 22 25 28 27 28 30 31 33 33 34 45 55 59 61 58 61 69 69 67 69 69 65 63 76 74 57 67 86 81 78 81 75 71 68 64 64 62 61 60 54 48 45
7 8 8 8 7 7 7 7 7 7 7 8 8 9 8 8 9 10 11 12 12 13 13 13 13 13 14 14 15 16 17 17 17 16 17 18 18 18 18 19 20 20 20 21 20 21 20 23 29 30 34 41 43 45 46 45 53 61 64 68 67 67 71 72 71 72 75 70 65 77 82 65 68 83 78 76 82 76 68 66 66 69 66 60 56 49 44 44
8 8 8 8 8 8 7 7 8 8 8 8 8 8 8 9 11 11 12 12 12 12 12 13 14 13 14 15 15 16 16 16 16 15 16 17 16 17 18 18 19 20 20 20 20 20 18 19 27 28 33 43 48 49 52 53 59 65 69 74 76 75 74 74 75 76 76 75 71 78 84 75 76 86 83 80 79 70 63 64 68 70 64 55 49 44 42 43
8 8 9 9 9 9 8 8 8 8 8 8 8 8 9 10 11 12 12 12 12 12 13 13 14 14 14 15 15 15 15 15 15 15 16 16 15 17 17 17 18 18 19 19 19 19 16 17 23 24 27 42 51 51 52 56 62 67 71 78 81 79 77 75 78 80 76 77 81 84 82 81 87 90 86 83 78 67 61 65 71 69 58 48 44 41 41 43
9 9 9 8 8 9 8 8 8 8 8 8 8 9 10 11 12 12 12 12 13 13 13 13 14 14 14 15 14 15 15 14 15 15 15 15 16 16 15 16 16 16 17 18 18 19 18 17 21 18 17 33 51 55 54 58 63 65 72 84 87 81 78 77 77 80 78 79 89 89 79 80 91 92 86 81 74 64 61 67 71 64 52 43 40 40 42 43
9 8 8 8 8 8 8 8 8 8 8 9 9 10 10 11 11 11 12 12 13 13 14 13 14 14 14 15 15 15 15 15 14 14 14 13 13 13 12 13 14 14 16 18 18 21 21 18 19 17 11 24 46 53 55 61 62 61 72 89 92 83 78 78 78 81 82 84 92 90 80 79 86 87 82 77 68 61 60 64 63 54 44 39 39 41 41 43
8 8 8 8 8 8 8 8 8 8 8 8 9 9 9 9 9 9 9 10 10 11 12 11 12 12 12 12 12 12 12 11 11 10 10 9 9 10 10 11 12 13 16 18 19 22 23 20 19 17 11 19 37 44 49 56 56 61 76 90 93 86 79 78 81 82 86 93 95 89 82 81 80 77 74 70 66 60 57 56 51 44 39 39 40 40 41 52
7 8 8 8 7 7 7 7 7 7 7 7 6 6 6 6 6 6 6 6 6 7 7 7 8 8 8 8 7 7 7 7 7 7 7 8 8 9 10 11 13 15 17 20 22 22 23 22 20 19 14 18 32 39 42 47 51 63 81 88 90 87 81 79 81 82 90 99 98 89 82 80 76 72 68 64 61 56 50 45 42 39 38 39 39 40 49 70
Wind_Speed
20 21 22 24 25 27 26 23 21 22 20 18 15 14 15 13 11 10 10 11 11 12 11 10 9 10 10 10 11 9 10 14 14 11 10 13 14 14 13 14 14 15 15 15 15 16 16 15 15 15 15 15 14 15 16 18 18 19 20 21 22 23 23 23 24 25 26 27 29 31 32 34 36 38 40 41 43 44 45 46 47 48 48 47 48 48 49 50
20 22 23 24 25 25 24 23 23 21 17 15 13 13 14 12 11 11 12 12 13 13 11 10 10 10 10 10 10 9 10 14 12 9 11 13 13 12 13 13 14 15 15 15 15 14 14 13 14 14 15 14 13 14 16 16 17 18 19 20 21 22 23 23 24 24 26 28 30 32 34 36 37 39 41 42 43 44 46 47 49 49 48 48 47 48 49 50
19 21 23 24 25 25 25 23 22 19 15 14 14 14 14 12 12 12 13 13 13 12 11 10 10 10 10 10 9 8 10 13 10 9 12 12 11 11 12 13 14 14 14 13 13 12 12 13 13 14 14 13 14 14 14 15 17 18 19 20 21 22 23 23 24 25 27 29 31 33 35 36 38 40 41 42 44 45 46 48 49 49 49 48 48 48 49 51
19 19 21 23 24 25 24 22 19 17 15 15 16 16 14 13 13 13 13 13 13 12 11 10 10 10 10 10 9 8 10 10 9 10 11 9 10 10 11 12 12 13 12 12 12 12 13 13 13 13 13 13 14 14 14 16 17 18 19 20 20 21 22 24 25 27 28 30 32 33 34 36 38 40 41 43 44 45 46 48 49 49 48 48 48 49 50 51
18 20 21 21 22 23 22 20 17 16 15 17 18 17 14 14 14 13 13 13 13 12 10 10 10 10 10 9 9 8 9 9 9 10 9 8 9 10 10 11 12 12 12 12 13 13 13 13 13 12 12 13 14 15 16 17 17 18 19 21 21 22 24 25 27 28 29 31 32 33 35 36 38 40 42 43 43 44 45 47 48 48 48 48 50 51 51 52
17 20 21 21 20 20 19 17 15 15 15 17 18 17 16 15 15 14 14 14 13 12 11 10 10 10 9 9 9 8 8 9 9 8 7 8 9 9 10 11 12 12 13 13 13 13 13 13 12 12 13 14 15 16 17 17 17 18 19 21 23 24 26 27 27 28 29 31 33 34 35 36 38 40 41 42 43 44 45 46 47 48 48 49 51 52 53 53
15 18 19 20 19 17 16 15 15 14 16 17 17 17 17 16 16 15 15 15 13 11 10 10 9 9 8 8 9 8 8 9 8 7 7 8 9 9 10 12 12 12 12 12 12 13 13 13 13 14 15 15 16 17 18 18 18 19 20 23 25 26 28 28 28 28 30 31 33 35 35 36 38 39 40 41 41 43 44 45 46 48 49 50 51 53 54 54
14 17 18 19 18 15 14 15 16 15 16 18 16 18 17 16 17 16 16 14 12 11 10 10 9 9 7 7 9 8 7 8 7 6 7 8 8 9 11 12 11 11 12 12 13 14 14 14 14 15 16 16 18 19 19 19 19 20 21 23 25 27 28 29 28 28 30 32 33 35 36 36 37 38 40 40 41 42 43 44 46 47 49 50 52 54 54 55
13 16 19 20 18 15 13 15 18 15 17 18 17 18 18 17 17 16 15 13 11 10 10 10 10 9 7 7 8 9 8 7 5 5 7 7 8 9 11 11 11 12 13 14 14 14 14 15 16 16 17 18 19 19 20 20 21 22 23 24 25 26 28 29 30 29 30 32 34 36 36 36 37 38 39 40 41 42 43 44 45 47 49 51 52 54 55 55
13 16 18 19 18 16 13 15 18 16 18 19 18 19 18 18 17 16 14 12 10 10 10 9 8 8 7 8 9 9 7 6 5 5 6 7 8 9 10 11 12 12 13 14 14 14 15 16 17 18 19 19 20 21 22 22 23 24 25 24 24 26 28 30 31 31 31 33 34 36 36 36 37 39 40 40 41 42 43 44 45 47 48 51 53 54 55 56
14 16 18 19 19 17 16 17 17 18 19 20 19 19 18 18 18 16 13 11 10 10 10 9 8 7 8 9 8 8 7 5 4 5 7 8 8 9 10 11 12 13 13 14 14 15 16 17 18 19 20 20 21 22 23 24 25 26 25 25 25 26 28 30 32 33 33 33 34 36 37 37 38 39 40 41 41 42 43 44 45 47 49 51 53 54 56 56
16 16 17 19 20 18 17 17 17 20 21 20 20 19 19 18 17 15 12 11 11 11 10 10 8 7 8 9 8 7 6 5 4 5 7 8 8 9 10 11 13 13 13 14 15 16 17 17 18 19 20 21 21 22 23 24 25 26 26 25 26 27 28 30 32 34 34 34 35 37 38 37 38 39 40 41 41 42 43 44 45 47 49 51 53 54 56 56
17 18 18 19 20 19 18 16 16 21 23 22 21 19 19 18 16 14 12 11 11 11 11 10 8 7 8 9 8 6 5 4 4 6 7 7 8 9 10 11 13 13 13 15 15 16 16 17 18 18 19 21 21 22 23 25 26 26 27 27 28 29 30 31 32 34 34 35 36 38 39 38 38 39 40 40 40 42 43 44 46 47 49 51 52 54 55 56
18 19 19 19 20 20 19 15 17 22 24 22 22 20 19 18 15 13 12 12 11 11 11 9 8 8 9 9 6 5 4 3 4 5 6 7 8 9 11 12 13 13 13 14 14 15 16 17 17 18 19 21 21 22 24 25 26 26 28 29 30 31 31 31 32 34 34 36 37 38 39 39 39 39 39 40 40 42 43 45 46 48 49 51 52 53 54 56
19 19 20 20 21 22 21 18 19 24 24 23 22 21 20 17 15 13 12 12 12 11 10 8 8 9 9 7 5 4 3 3 4 5 5 7 9 10 11 13 14 14 13 14 14 16 17 17 17 18 21 21 21 23 24 25 26 27 28 29 29 29 30 30 31 33 34 35 36 37 39 39 39 39 39 39 41 42 44 46 47 48 49 51 52 53 54 55
20 21 22 21 22 23 22 21 23 25 24 23 23 21 19 17 14 13 12 12 12 11 9 9 10 10 8 6 4 4 2 2 3 4 6 8 9 11 12 13 14 14 14 16 17 17 18 18 18 21 21 20 21 23 24 26 27 28 28 28 28 28 29 30 30 32 34 34 35 37 38 39 39 39 39 40 41 43 45 46 47 48 49 50 51 53 53 55
21 22 23 23 24 24 24 24 27 26 24 24 23 21 19 16 14 12 11 11 11 11 9 10 11 9 7 5 4 3 2 2 3 4 6 8 10 11 12 13 13 14 16 17 18 18 19 19 20 21 21 21 24 25 26 26 26 26 26 26 27 28 28 30 30 31 33 33 34 36 38 39 39 40 40 41 42 44 45 46 47 48 49 50 51 52 53 54
21 22 23 23 22 24 27 29 30 27 25 24 22 21 18 15 14 12 12 12 11 11 11 11 10 8 6 4 3 2 1 2 2 4 8 9 10 12 13 13 13 15 16 17 17 18 19 20 21 21 22 25 26 26 25 25 25 25 26 26 27 29 29 30 31 31 33 34 34 36 38 40 40 40 41 42 43 44 45 46 47 48 49 50 51 52 54 55
22 22 22 22 21 25 31 33 31 28 26 24 22 20 17 15 14 13 12 12 11 12 12 11 9 7 5 3 2 1 0 1 3 6 8 9 10 12 13 14 15 17 17 17 18 19 21 21 21 22 23 24 24 24 24 24 25 26 27 27 28 29 30 31 33 33 33 34 35 35 38 40 41 41 42 43 44 44 45 46 47 48 48 50 51 52 54 55
24 22 21 24 27 29 31 31 30 28 25 24 22 19 17 16 15 14 13 12 12 13 12 10 8 6 4 3 1 0 1 1 5 7 7 9 11 12 14 15 17 17 17 18 19 20 21 21 22 23 23 23 23 24 24 25 26 27 28 29 29 30 32 33 35 36 35 34 35 35 37 41 41 41 42 43 44 44 45 46 47 48 48 49 51 52 54 55
23 23 25 31 32 30 30 29 28 26 24 22 20 18 17 16 15 15 14 13 14 14 12 9 7 5 4 2 1 0 1 2 5 6 7 10 12 13 15 16 17 17 18 18 19 19 20 22 23 23 23 23 24 25 26 27 28 29 30 31 31 32 32 34 36 38 37 36 36 35 36 41 42 41 41 43 44 44 45 47 47 47 48 49 51 52 54 55
24 26 30 33 33 31 31 29 26 24 23 21 19 18 17 16 16 15 15 15 15 13 11 8 6 4 2 0 0 1 2 4 5 6 8 11 13 14 16 17 17 18 19 19 20 21 22 23 24 24 24 25 26 27 28 28 29 31 32 32 33 34 33 34 35 38 39 38 37 36 35 39 42 41 41 43 44 45 46 47 48 48 48 49 51 52 54 55
29 30 33 33 32 33 31 27 25 23 22 20 19 17 17 16 16 15 15 15 15 12 10 7 5 3 1 1 0 2 3 4 5 7 10 12 14 16 17 18 18 19 19 20 21 22 23 24 24 25 26 27 28 28 30 31 31 32 33 33 34 35 35 34 35 37 40 41 40 39 35 37 41 40 40 43 44 46 47 47 48 48 49 50 51 52 54 55
31 33 33 32 32 31 28 25 23 22 21 19 18 17 17 17 16 15 14 14 13 11 8 6 4 2 0 1 1 2 3 4 7 9 11 14 15 16 18 19 19 20 21 22 23 23 24 25 25 26 27 28 29 30 31 32 32 33 33 34 34 35 36 37 36 36 39 41 42 41 38 35 40 41 41 43 44 46 47 48 49 49 49 50 51 52 53 54
32 33 33 32 30 27 26 25 23 21 20 19 18 17 18 17 17 16 14 13 11 9 7 5 3 1 0 1 2 2 4 5 8 11 13 15 16 17 18 20 21 22 23 24 24 24 25 26 27 27 28 29 30 31 31 32 33 33 34 35 36 36 37 38 38 37 38 41 42 43 42 38 40 42 42 44 45 46 48 49 49 50 50 51 51 52 53 54
32 32 31 30 28 25 24 24 22 21 19 18 18 18 19 18 17 16 14 12 10 7 5 4 2 0 1 2 3 3 5 7 9 11 13 15 16 18 19 21 22 23 24 25 26 26 27 28 29 29 30 31 31 32 33 33 34 35 35 36 37 37 38 38 39 39 38 40 41 43 46 42 40 42 44 45 46 47 49 49 50 50 51 51 52 52 52 54
29 28 28 27 26 24 23 22 21 20 18 18 18 19 20 18 17 16 14 11 8 6 4 2 1 1 2 3 4 5 6 9 11 12 14 16 17 19 21 22 24 25 26 26 27 28 29 30 30 30 31 32 33 33 34 34 35 35 36 37 37 38 39 38 38 39 38 39 40 42 46 44 41 44 45 45 46 47 48 50 50 51 51 52 52 52 52 54
27 26 26 25 24 23 22 21 19 18 18 18 18 19 19 18 17 15 13 10 7 5 4 2 2 2 4 4 5 6 7 9 11 13 15 17 18 20 22 24 25 26 27 28 29 30 30 31 32 32 33 34 34 35 36 36 36 36 37 38 39 39 40 39 38 38 37 39 40 42 46 46 43 44 46 46 47 47 48 50 50 51 51 52 52 52 53 54
26 25 25 24 23 22 21 19 18 17 17 18 18 18 18 17 16 14 12 10 7 5 4 3 3 4 5 5 6 7 9 10 12 14 16 17 19 21 23 24 26 27 28 29 30 31 32 33 33 34 35 36 37 37 37 38 38 38 38 39 40 40 41 39 38 37 37 39 41 43 47 47 45 45 46 47 47 47 48 49 50 50 51 52 52 53 53 54
26 24 23 22 21 20 19 18 17 17 17 18 17 17 17 16 15 13 12 10 7 5 4 4 4 5 6 7 8 9 10 12 13 15 17 18 20 22 23 25 27 28 29 30 31 32 32 33 34 35 36 37 38 39 39 40 40 40 40 40 41 42 42 40 39 38 38 41 43 45 47 46 46 48 47 47 47 46 47 48 49 50 51 52 52 53 53 54
23 22 21 20 20 19 18 16 16 16 17 17 16 16 16 15 14 13 11 9 7 6 5 5 6 7 8 9 10 11 12 13 15 16 17 19 20 22 24 25 27 28 28 29 31 32 33 34 35 35 36 38 39 40 41 42 42 42 42 42 42 43 42 42 41 40 40 42 45 46 47 45 45 47 46 46 47 46 47 48 49 50 51 52 52 53 53 55
21 21 19 19 19 18 17 16 16 16 16 16 15 15 14 13 13 12 11 9 8 6 7 7 8 9 10 11 12 13 14 15 16 18 19 20 22 24 25 27 28 28 28 29 30 31 33 34 35 35 37 38 39 41 42 43 43 44 43 43 43 44 44 44 45 44 42 42 44 46 47 45 44 45 45 45 47 47 47 48 49 50 51 52 53 53 54 55
21 20 19 18 17 16 16 15 15 15 15 15 14 14 13 12 12 12 11 10 8 7 8 9 10 11 13 14 15 15 16 17 18 19 20 22 23 25 26 27 28 29 30 30 31 31 32 34 35 36 37 38 40 41 43 44 44 45 45 45 46 47 48 47 48 48 45 43 43 44 46 46 44 44 45 45 46 47 48 49 50 51 52 53 53 54 54 55
20 19 17 17 16 16 15 14 14 14 14 14 13 12 11 11 11 11 10 9 9 9 10 11 12 14 15 16 17 18 18 19 20 21 22 23 25 26 27 28 29 30 31 31 32 33 34 35 36 38 39 40 41 42 43 44 45 45 46 46 47 47 48 48 48 48 48 45 43 43 45 46 45 44 45 45 47 48 49 50 51 52 52 53 54 54 55 55
19 18 17 16 15 15 15 14 13 13 13 12 11 11 11 11 10 9 9 9 9 10 11 12 14 15 16 17 18 19 20 21 22 23 24 25 26 27 29 30 31 32 32 33 33 34 35 37 38 39 40 41 42 43 43 45 45 45 46 46 47 47 47 48 47 47 49 47 44 44 47 47 46 45 45 46 48 49 50 50 51 52 53 53 54 55 55 56
18 17 16 15 14 14 14 13 13 13 12 11 11 10 10 10 9 8 8 9 10 11 12 13 14 16 17 18 19 20 21 22 23 24 25 26 28 29 30 31 32 33 33 34 35 35 36 37 39 40 41 42 43 43 43 44 45 45 46 46 47 47 47 48 48 48 50 50 46 45 48 50 48 47 47 48 49 50 50 51 52 53 53 54 54 55 56 56
16 15 14 13 13 13 12 12 12 12 11 10 10 10 9 9 8 8 8 9 10 11 13 14 15 17 18 19 20 21 22 23 25 26 27 28 29 30 31 32 33 33 34 34 35 36 36 38 39 41 42 43 43 44 44 44 45 45 45 46 47 48 48 49 49 49 50 52 49 46 46 50 51 49 49 49 49 50 51 51 52 53 53 54 55 56 56 57
15 14 13 12 12 12 11 11 11 11 10 9 9 9 8 8 8 8 9 10 11 12 14 15 16 18 19 20 21 22 23 24 25 27 28 29 29 30 31 32 33 34 34 35 36 37 38 39 40 42 44 44 44 45 44 44 45 45 45 46 47 48 48 48 48 49 50 52 52 49 45 47 51 50 49 49 49 49 51 52 53 54 54 55 56 56 58 58
13 13 12 12 12 11 11 10 10 9 9 8 8 8 8 8 8 9 10 11 12 13 15 16 17 19 20 21 23 24 25 26 26 28 29 30 31 31 32 33 34 34 35 36 37 38 39 40 41 42 45 46 45 46 45 44 45 46 46 46 46 47 48 48 47 48 49 50 52 52 47 44 48 49 48 49 49 49 51 52 53 55 55 56 58 58 59 60
13 12 12 12 12 11 10 10 9 8 8 7 7 7 7 8 8 10 11 12 13 14 16 18 19 21 22 23 24 25 26 27 28 29 30 31 32 32 33 34 35 35 36 37 39 40 41 42 42 43 45 47 47 47 46 45 45 46 47 46 46 47 48 48 47 46 47 48 50 53 49 43 45 48 48 48 49 49 52 53 54 56 57 57 60 61 61 61
12 12 12 12 11 10 10 9 8 8 7 7 6 6 7 8 9 10 11 12 14 16 18 20 21 23 24 25 25 26 27 28 28 30 30 31 32 33 34 35 36 37 38 39 40 41 42 43 44 43 44 46 48 47 46 45 44 45 47 47 46 46 47 47 47 46 46 47 48 51 50 43 42 47 47 48 49 50 53 55 56 58 58 59 61 63 63 64
12 12 11 11 10 10 10 9 8 7 6 6 6 7 8 8 9 11 13 15 17 19 20 22 23 24 24 25 26 27 28 28 29 30 31 32 33 34 35 36 37 38 39 40 41 42 43 44 45 45 44 46 48 48 47 46 44 44 46 47 46 45 45 45 46 46 47 48 48 50 51 45 42 46 48 48 50 51 54 57 58 59 60 61 63 64 65 66
11 11 11 10 10 9 9 8 7 7 6 6 6 7 8 9 11 13 16 18 19 20 22 23 23 24 25 26 27 27 28 29 29 30 31 32 33 34 35 36 37 38 39 41 42 43 44 45 46 46 46 45 46 47 48 48 45 44 45 47 47 45 44 44 45 46 46 48 48 50 52 48 43 46 49 49 51 53 55 58 59 61 62 63 64 66 66 67
11 11 10 9 8 8 7 7 6 6 6 6 7 8 9 11 14 16 18 19 20 21 23 23 24 25 25 26 27 27 28 29 30 30 31 33 34 34 36 37 38 39 40 42 43 44 45 46 47 49 49 48 48 50 51 51 48 46 46 48 49 46 45 44 45 46 47 48 49 49 52 50 45 46 50 50 52 54 56 59 61 62 64 65 65 66 67 68
12 11 9 8 7 6 6 6 6 6 6 7 8 9 12 14 16 18 19 20 21 22 23 24 24 25 25 26 27 27 28 30 31 31 31 33 34 35 37 38 39 40 42 43 44 45 46 47 47 49 50 49 50 51 52 52 49 47 46 48 50 47 45 44 45 46 47 50 49 48 52 51 45 47 50 50 53 56 56 59 62 63 65 66 66 67 67 68
11 10 8 7 6 6 6 6 7 7 7 8 10 12 15 16 18 19 20 21 22 22 23 24 24 25 26 26 27 28 29 30 31 32 32 34 36 37 38 40 41 42 43 44 45 46 47 47 47 49 49 47 46 47 50 49 47 44 44 46 48 47 44 43 43 44 47 51 50 48 52 53 48 50 52 51 54 57 58 60 62 63 66 67 66 67 68 69
10 10 8 7 6 6 7 7 8 8 9 10 12 14 16 18 19 19 20 21 22 23 23 24 25 26 26 27 27 28 29 31 32 33 35 36 38 39 41 42 43 44 44 45 46 47 48 47 47 48 48 46 45 45 47 47 45 43 42 44 46 46 44 43 42 43 46 51 52 50 52 52 51 53 55 55 56 58 58 61 63 64 67 68 67 67 68 69
10 9 8 7 7 7 8 9 9 10 11 13 14 16 17 18 19 20 21 21 22 23 24 24 25 26 27 28 29 30 32 33 35 36 37 39 41 42 43 43 44 45 45 46 46 47 48 48 47 49 49 46 44 45 46 47 45 43 41 43 45 45 44 43 42 42 46 50 51 51 52 51 51 54 57 57 58 59 60 62 64 66 69 69 68 68 68 69
9 9 8 8 8 9 10 11 11 12 13 14 16 17 18 19 20 21 22 22 23 24 25 26 27 28 29 30 32 33 35 36 38 39 40 42 42 43 44 44 44 45 45 45 46 46 48 48 47 49 49 46 43 44 46 46 44 42 40 41 44 44 44 44 42 42 46 49 51 53 53 50 50 55 58 59 60 60 61 63 64 67 70 70 69 68 69 70
8 8 9 9 9 10 11 12 13 14 15 16 17 18 19 21 22 23 23 24 25 26 27 28 29 31 32 33 35 37 38 39 40 41 42 43 44 44 44 44 44 44 44 45 45 45 47 47 48 49 50 46 42 44 45 45 44 42 38 39 43 45 45 44 42 42 45 49 52 54 54 52 52 56 60 61 61 61 62 64 66 68 70 70 69 69 70 71
9 9 9 10 11 11 12 13 14 15 16 17 19 20 21 23 24 25 25 26 28 29 30 31 32 33 35 36 38 39 40 40 41 42 42 43 43 43 43 43 43 43 43 44 44 44 46 47 48 49 50 46 44 45 46 45 43 40 37 39 43 45 45 44 43 42 45 50 53 54 54 55 56 58 61 63 64 64 63 65 67 69 70 69 70 71 72 72
9 9 9 10 11 12 13 14 15 16 18 19 20 21 23 24 25 26 27 28 29 30 31 32 34 35 36 37 38 38 39 39 40 40 41 41 41 41 41 41 42 42 43 43 44 44 45 47 47 49 50 47 44 46 47 45 42 38 38 41 43 44 45 45 43 42 45 50 53 53 54 55 57 59 62 64 65 66 65 64 66 69 70 70 71 72 73 72
Wind_Direction
186 186 186 190 193 194 197 200 203 208 203 191 182 178 176 169 150 137 136 134 134 142 148 147 137 133 131 128 125 122 118 106 94 96 97 81 69 64 61 59 56 53 48 45 41 36 35 34 31 27 25 23 20 22 22 19 16 11 9 8 6 4 3 5 5 2 359 358 359 358 358 356 354 353 352 350 349 349 349 348 346 344 343 342 342 341 340 339
189 191 191 191 191 194 198 202 205 208 204 191 176 167 166 156 143 142 142 140 144 151 153 147 140 137 133 133 129 127 116 100 98 108 93 76 67 62 58 55 51 47 42 38 36 33 30 29 27 24 20 15 14 17 17 15 10 6 3 2 2 1 360 0 360 357 354 353 354 353 353 352 350 349 348 347 347 347 347 347 346 345 343 341 340 339 339 339
192 195 197 197 196 198 200 203 206 206 201 187 172 163 157 149 147 149 144 144 150 156 155 147 143 140 138 139 131 120 105 99 110 109 85 73 66 61 55 50 46 42 38 34 32 29 26 25 23 21 14 8 11 13 10 10 7 1 357 355 357 355 354 354 354 352 350 349 350 350 349 348 347 346 345 345 346 346 346 346 346 344 342 340 339 339 339 340
193 197 200 202 204 205 205 207 209 205 198 181 164 159 155 151 150 149 146 147 154 158 154 149 148 145 143 139 127 114 106 108 115 99 81 74 67 60 50 43 41 36 32 28 25 24 22 21 19 14 6 4 7 5 4 6 3 358 353 351 352 349 347 349 349 349 347 346 347 347 346 346 344 343 343 343 345 345 346 346 345 343 341 340 339 339 340 341
195 199 201 204 207 210 209 211 211 202 190 170 156 155 156 152 149 148 150 154 158 159 155 156 154 147 143 137 126 119 119 120 112 93 79 73 66 56 43 36 35 31 27 23 20 19 17 16 13 4 360 1 360 358 1 1 357 356 351 346 346 345 344 345 346 346 345 343 342 342 343 343 342 341 341 342 344 344 345 345 344 343 341 340 340 340 341 341
199 201 203 204 206 206 205 204 200 191 175 158 152 153 153 150 149 151 155 161 164 161 159 158 153 146 144 140 130 128 131 124 108 91 77 70 62 47 36 32 31 29 24 20 15 13 11 10 4 357 358 357 354 357 357 353 351 353 348 342 343 345 344 342 342 344 341 339 338 339 341 341 340 340 341 342 343 344 344 343 343 342 342 342 341 341 341 341
199 204 205 206 206 197 191 186 179 177 163 152 154 152 150 151 151 157 162 166 166 162 158 152 147 144 147 148 135 132 134 121 106 89 76 67 52 36 32 31 29 27 22 16 10 6 5 0 354 354 355 350 353 355 351 347 348 350 346 342 345 346 343 340 340 340 337 336 336 336 338 339 338 340 340 341 342 343 343 342 342 342 342 343 343 342 342 342
194 203 204 209 210 188 178 176 173 174 161 155 156 151 151 155 156 162 166 167 165 158 153 149 148 148 156 160 140 135 137 120 104 87 74 60 41 31 32 29 24 21 16 10 5 1 356 351 350 351 347 347 352 350 345 344 346 347 345 345 346 343 339 337 337 337 335 334 333 333 334 337 338 339 339 339 341 342 341 340 341 342 343 344 344 343 342 342
192 200 202 209 206 185 179 178 174 173 161 158 158 154 154 158 162 167 168 165 161 155 153 150 152 155 160 161 145 142 140 118 98 82 70 51 35 32 31 25 17 12 8 5 0 354 346 345 347 344 344 348 349 344 341 343 345 346 346 347 343 337 334 334 334 335 335 332 331 332 334 336 336 336 337 338 341 341 340 339 340 341 343 344 345 344 343 342
196 199 199 202 195 184 184 176 171 167 160 160 159 157 157 160 167 170 167 164 159 157 153 149 158 165 161 158 150 144 133 111 90 76 61 43 34 32 28 19 11 7 3 360 354 347 343 345 344 342 346 348 342 340 341 342 344 345 346 344 336 333 333 332 331 334 334 333 332 332 333 335 333 334 336 338 340 340 339 338 338 340 342 344 345 344 343 343
199 199 197 195 185 182 181 170 166 162 159 160 159 159 159 164 171 170 166 162 158 158 152 151 163 172 165 156 149 140 125 104 87 65 48 38 33 28 20 11 6 3 359 355 350 347 346 345 343 344 346 344 340 341 342 344 345 344 342 338 334 333 332 330 331 333 334 334 333 332 331 331 331 334 337 338 339 339 338 337 337 339 342 344 344 344 343 343
199 198 195 192 183 180 179 170 166 162 159 160 159 160 162 168 171 167 165 160 158 158 156 159 165 173 166 153 148 140 119 100 83 55 42 36 30 20 11 4 1 359 355 352 349 348 346 344 345 346 344 342 343 344 345 346 345 341 337 335 335 333 331 331 332 333 334 333 330 328 328 329 332 335 336 337 338 338 336 336 337 339 342 343 344 343 343 342
196 195 194 191 184 182 182 176 167 163 161 159 159 161 165 170 168 165 163 159 160 160 161 165 165 171 164 153 149 135 111 96 70 49 42 32 24 13 4 1 358 355 353 351 348 346 346 347 346 345 345 345 345 347 350 348 343 339 337 337 337 334 332 333 332 331 330 327 326 325 326 329 332 334 335 336 337 336 335 335 337 339 341 342 342 342 342 342
192 192 191 187 186 186 182 178 169 162 161 159 159 163 169 170 165 162 162 161 163 162 164 164 165 172 162 149 143 125 107 88 59 48 39 25 17 8 2 359 354 352 351 348 347 347 350 351 346 346 350 348 348 353 354 348 343 341 340 340 337 334 332 332 331 328 326 325 325 326 327 330 333 334 335 335 335 334 334 335 337 339 341 341 341 341 342 342
187 188 186 183 188 187 181 179 170 163 161 160 161 167 171 168 163 163 164 164 163 163 166 165 169 172 157 144 138 118 98 72 56 47 30 18 12 6 0 357 351 348 348 348 350 352 353 349 346 352 353 349 352 355 351 346 345 345 342 339 335 333 331 330 330 327 325 326 327 328 328 330 333 334 334 334 333 334 334 335 337 339 340 340 340 340 341 343
183 183 181 181 187 185 180 178 169 164 163 161 164 170 170 164 163 165 167 168 165 163 167 173 173 164 150 146 133 107 88 64 50 37 21 14 9 3 359 354 348 345 348 351 353 353 351 348 352 356 349 348 354 352 347 347 346 344 340 336 334 333 330 330 330 328 327 329 331 331 330 331 332 333 333 333 333 334 334 336 337 338 339 339 338 339 341 343
182 180 178 179 183 183 184 175 166 165 165 164 167 169 166 162 163 167 170 172 170 168 170 175 168 151 147 150 126 110 93 59 38 22 15 10 4 360 357 350 344 348 352 352 350 351 350 352 355 351 344 350 354 348 346 345 342 340 337 334 334 335 333 331 330 330 330 333 334 333 331 331 332 333 333 332 333 334 335 336 337 338 339 338 337 338 340 343
181 178 175 180 185 187 184 172 164 165 165 166 168 167 164 162 164 171 175 173 174 175 172 168 159 149 153 151 132 136 88 42 8 10 14 5 354 355 353 343 345 353 354 349 348 349 352 354 351 345 348 353 349 344 342 339 338 337 335 335 336 336 336 333 332 333 334 335 337 336 333 331 332 333 333 332 332 334 336 337 338 339 339 338 337 338 340 342
178 173 173 182 184 178 173 165 162 164 166 168 167 165 163 162 167 174 177 175 175 175 169 162 158 156 155 150 156 166 79 359 357 14 10 355 348 351 346 343 351 355 351 349 351 352 352 351 347 348 352 348 341 338 337 336 337 336 336 337 337 335 336 336 335 336 337 336 337 338 334 332 332 333 333 332 332 335 337 338 339 339 338 338 337 338 340 342
175 172 174 177 173 168 164 161 161 163 166 166 163 163 163 165 171 173 176 179 178 174 167 161 159 157 152 148 149 165 253 334 8 11 357 348 349 348 345 348 353 351 349 352 355 354 350 348 348 350 347 341 339 338 337 337 337 336 337 337 337 336 336 337 336 336 338 337 336 339 336 332 333 334 333 332 333 336 338 339 340 340 339 338 338 339 341 343
175 178 177 170 165 164 163 162 162 162 164 164 162 163 164 167 173 174 176 181 179 173 165 160 158 153 148 136 115 251 253 5 3 353 344 347 349 347 347 349 350 349 351 355 356 353 349 349 350 347 342 340 340 338 338 339 337 337 338 337 336 337 337 337 337 337 338 338 336 340 338 333 333 335 333 333 335 337 339 340 341 341 340 339 339 339 341 342
179 180 174 164 160 163 163 161 161 161 162 162 162 164 166 171 174 177 180 180 177 170 162 160 158 149 136 118 248 316 9 1 342 339 345 346 347 346 346 347 347 350 354 355 355 353 352 352 349 345 343 342 341 339 340 339 339 338 338 337 336 337 337 337 337 337 338 339 337 338 339 334 332 334 334 335 336 338 340 341 342 343 341 340 340 340 342 342
173 170 166 161 161 163 160 159 160 161 162 162 163 166 169 173 175 178 182 179 173 166 163 159 151 142 142 247 274 8 1 333 331 346 349 348 348 345 344 344 346 350 354 356 356 355 353 351 349 348 347 345 344 343 342 341 341 340 338 337 337 336 337 337 339 338 337 338 337 337 339 336 331 334 337 337 338 339 341 343 344 344 343 342 341 341 342 342
161 161 161 161 163 160 156 158 162 162 162 163 165 169 173 175 176 178 180 179 171 164 163 154 145 154 207 296 331 359 336 324 344 353 351 350 347 343 342 344 346 349 353 356 357 354 353 351 350 350 349 348 348 347 345 343 341 340 339 338 337 337 338 339 340 339 336 335 336 335 338 338 333 336 339 339 340 341 342 344 345 346 345 343 343 343 342 342
159 161 161 160 160 157 156 160 164 163 163 165 168 174 177 177 177 175 175 178 172 163 162 156 154 193 289 327 337 338 335 342 349 351 351 349 344 341 342 343 346 349 352 355 354 353 353 352 351 351 350 350 350 349 348 346 344 341 340 339 339 339 339 339 340 340 337 334 335 334 335 341 338 337 341 341 342 343 343 344 345 346 346 344 344 343 342 343
161 161 159 158 158 158 159 163 164 164 165 168 173 179 181 179 177 172 172 179 177 166 166 164 159 281 301 315 336 330 333 344 346 348 349 345 341 341 342 344 346 348 350 352 351 350 351 351 350 350 349 349 349 349 348 348 346 343 342 341 341 341 340 341 340 340 338 334 335 333 334 342 342 338 342 343 343 344 344 344 345 345 345 345 345 344 343 344
159 158 158 159 159 160 162 164 164 164 166 172 179 184 184 180 177 171 171 181 185 178 179 179 184 330 328 320 325 318 329 340 341 344 344 341 340 341 342 344 345 346 348 350 348 347 348 348 348 347 347 348 347 347 347 347 346 344 344 343 343 342 342 342 341 340 337 334 335 334 334 341 343 340 342 343 344 345 343 343 344 344 344 344 344 344 344 345
156 159 162 162 162 162 164 165 164 166 170 176 183 187 186 181 177 172 172 182 189 188 191 202 240 303 327 324 317 314 325 333 335 338 338 338 339 340 342 344 343 344 346 347 346 346 346 345 346 344 345 346 345 345 344 344 345 344 344 343 343 343 343 343 341 339 338 335 335 335 335 342 345 341 342 344 344 345 343 342 342 343 343 343 343 343 344 345
156 162 165 164 164 164 166 167 167 171 175 180 185 187 187 184 178 174 176 186 192 197 215 244 269 298 317 319 316 314 321 327 331 333 333 335 338 339 342 342 341 344 345 344 344 344 343 343 343 343 343 343 342 342 342 342 342 342 343 342 342 343 344 343 341 340 339 337 337 337 338 343 344 342 343 344 344 344 342 341 341 341 342 342 342 343 344 345
157 164 166 165 165 167 169 170 172 176 179 183 186 187 189 186 180 178 184 193 200 215 244 259 274 297 310 313 314 315 318 322 327 329 330 333 336 337 340 340 340 343 343 341 341 341 341 341 341 341 340 340 339 339 340 340 340 339 340 340 340 342 343 342 341 341 341 339 340 339 340 343 343 342 343 343 343 344 342 340 340 341 341 341 342 343 344 344
160 165 166 166 168 171 172 174 177 180 183 186 187 190 192 188 183 187 195 202 212 233 261 272 280 294 302 308 312 314 317 320 322 325 327 329 332 334 336 338 339 340 340 339 338 338 339 339 339 338 338 338 337 337 338 338 337 337 337 337 339 340 340 340 341 342 343 342 342 341 341 344 343 342 343 342 342 343 341 340 340 341 341 341 342 343 343 344
164 166 167 169 172 174 175 178 181 183 186 188 191 193 194 190 190 197 206 215 228 249 272 281 286 294 299 304 308 310 313 316 319 321 323 326 329 333 335 335 335 336 336 336 336 336 336 336 336 335 336 336 336 336 336 336 336 336 336 336 336 336 337 338 340 342 345 344 343 341 341 343 344 341 342 342 342 342 340 339 340 341 341 341 342 343 343 343
165 167 169 171 174 176 179 183 184 186 189 191 194 196 196 197 199 207 217 228 240 261 282 287 291 297 300 302 305 307 310 313 316 319 321 325 327 330 330 330 331 332 332 333 333 333 333 333 333 333 334 335 335 335 335 335 335 335 335 335 335 336 336 337 339 340 343 344 344 341 340 342 343 341 341 342 341 341 340 340 340 341 341 341 341 342 342 342
167 168 170 172 176 180 183 186 186 187 190 192 195 197 199 203 207 216 227 239 254 273 287 291 295 299 301 303 304 306 309 311 314 317 319 322 324 325 326 326 328 329 329 330 330 331 331 331 331 332 333 334 334 334 334 334 334 334 334 335 336 337 337 337 339 339 340 343 344 342 340 341 342 341 340 341 341 340 340 340 341 340 341 340 340 341 341 341
166 167 171 176 180 182 185 187 187 188 191 194 196 199 203 209 215 226 237 252 269 282 290 294 298 301 302 305 306 307 308 310 312 314 316 319 320 322 323 324 326 327 327 328 328 329 330 330 330 331 331 332 333 333 333 333 333 333 333 334 335 336 336 337 338 338 339 341 343 343 340 338 340 340 340 341 341 340 340 341 340 340 340 339 339 340 341 342
165 167 173 179 182 185 186 187 188 191 195 198 200 205 210 215 224 236 251 268 280 288 293 297 300 302 304 305 306 307 308 309 311 312 314 316 318 320 321 323 324 325 325 326 326 328 328 328 328 329 330 331 331 332 332 332 332 333 333 333 334 335 335 335 337 338 338 339 342 343 339 337 339 340 340 342 341 340 340 341 340 339 339 339 338 339 340 341
165 168 175 182 185 186 186 188 192 195 198 201 204 210 216 222 235 249 265 277 286 291 295 299 301 302 304 305 305 307 308 309 310 311 313 315 316 318 320 321 322 322 323 324 325 326 326 326 327 327 328 329 330 331 332 332 332 332 333 334 334 333 334 335 336 337 337 337 340 343 340 337 338 340 341 342 341 340 340 340 339 340 340 339 339 338 339 341
166 170 177 184 187 187 189 193 196 198 200 203 207 214 223 233 248 262 274 283 289 293 296 299 301 302 304 304 305 306 307 308 310 311 312 314 315 317 318 318 319 320 321 322 323 323 324 325 326 326 326 328 329 330 331 332 332 332 334 334 334 333 334 336 336 337 337 336 337 341 343 338 336 339 341 340 341 340 339 340 339 340 341 340 339 339 339 340
169 174 181 187 189 190 193 195 197 199 201 205 211 221 234 246 260 273 282 287 291 294 297 299 301 302 303 303 304 306 306 308 309 310 311 313 314 315 316 317 317 318 319 320 321 321 322 323 325 326 326 327 329 329 331 332 332 332 332 333 334 333 334 335 336 336 336 336 335 338 343 341 335 338 340 339 339 339 338 339 339 340 342 341 340 340 340 340
173 180 185 189 191 192 195 196 196 198 201 208 216 229 244 257 271 281 287 291 293 297 299 300 301 301 302 303 303 304 305 307 308 309 310 312 312 314 315 316 316 317 318 318 319 320 321 322 324 326 326 326 327 329 330 332 332 331 331 333 333 333 333 334 334 335 334 335 333 333 340 343 336 336 339 337 338 339 337 338 338 339 340 340 340 340 340 340
177 183 186 189 191 193 195 195 194 196 202 212 223 238 254 268 277 283 288 293 295 298 299 300 300 301 301 302 302 303 304 306 307 308 310 311 311 313 314 315 315 316 317 317 318 319 321 322 323 326 326 326 327 328 329 330 331 330 330 332 333 333 332 332 332 333 332 333 332 330 335 343 338 334 337 336 336 338 337 336 338 339 339 339 339 339 339 339
179 184 186 187 190 192 193 192 193 199 208 218 234 252 264 273 281 286 291 294 296 297 298 299 299 300 300 301 302 303 303 305 306 307 308 309 310 311 313 313 314 316 317 317 319 320 320 321 322 324 326 326 326 326 326 328 330 330 330 330 331 331 330 330 330 332 331 330 330 328 330 339 340 334 335 336 334 337 337 336 337 338 337 338 339 338 338 338
181 185 186 187 189 191 191 192 197 208 221 234 250 261 267 276 285 290 293 295 296 297 297 298 299 299 300 300 301 302 303 304 305 306 307 308 309 311 312 313 314 316 317 318 319 319 320 321 321 322 324 325 325 324 324 326 329 331 330 329 330 330 329 329 329 329 329 327 327 327 328 336 341 334 333 335 334 336 337 336 337 337 336 337 338 337 337 337
181 185 187 189 190 192 195 200 209 222 237 249 259 266 274 283 290 293 294 295 296 297 297 298 299 299 299 300 301 302 302 304 305 305 306 307 309 311 311 313 314 316 317 318 318 319 320 321 321 320 321 323 323 323 323 325 328 330 330 327 327 328 327 328 327 326 326 325 326 326 326 333 340 334 332 336 334 336 337 336 337 336 334 336 337 336 336 335
182 186 188 191 194 198 204 213 225 238 248 255 263 272 281 288 291 293 295 295 296 298 297 298 299 299 299 300 300 302 303 304 305 306 307 308 309 310 311 313 314 315 316 317 318 318 319 320 321 320 321 322 323 322 322 324 326 329 329 325 324 325 326 327 327 324 323 323 325 326 325 330 337 332 331 336 334 335 337 336 336 335 333 335 336 335 334 334
185 189 192 197 202 209 217 227 238 247 253 260 269 278 285 289 291 293 295 296 297 298 298 299 299 298 299 300 301 302 303 303 304 306 308 308 309 310 311 312 313 314 315 316 316 317 317 319 319 319 320 322 323 322 321 322 325 328 328 323 320 323 325 325 325 323 321 320 323 326 324 329 335 330 330 335 334 335 337 335 335 334 332 333 334 333 333 333
191 197 202 209 217 222 231 239 246 253 260 267 274 281 286 289 291 293 295 296 298 298 298 299 299 298 300 301 301 302 302 303 304 306 308 308 308 310 310 312 313 313 314 314 315 316 316 317 318 317 318 320 322 321 319 321 323 327 327 321 317 320 323 324 323 322 320 319 322 326 325 328 333 330 329 333 333 334 336 334 333 332 330 332 333 332 332 332
198 205 211 221 230 237 243 249 255 261 268 273 278 283 286 288 290 292 294 296 297 297 298 298 298 298 299 300 300 301 302 303 304 306 306 307 308 309 309 311 311 312 312 313 314 314 315 316 317 316 317 319 321 319 318 320 322 327 327 319 315 318 321 321 321 321 321 320 321 323 325 329 332 328 328 332 332 333 334 333 332 330 329 330 331 331 331 332
206 213 219 229 239 245 251 256 261 266 271 276 279 282 284 286 288 290 292 294 295 296 297 297 297 298 298 299 300 300 301 302 304 305 305 306 307 307 308 309 310 311 311 312 313 313 314 315 316 315 317 319 320 318 317 319 322 326 326 316 313 317 319 319 321 323 323 321 321 322 325 328 329 326 327 330 331 332 333 332 330 328 328 329 330 330 331 332
217 223 228 237 245 250 255 259 264 269 273 276 279 281 283 285 287 289 291 292 293 294 295 295 296 297 298 298 299 300 301 302 303 303 304 305 306 306 307 309 309 310 311 311 312 313 313 315 315 315 317 320 320 317 316 318 322 326 325 315 312 315 318 319 323 326 324 321 320 321 324 326 326 325 326 328 329 329 331 330 329 327 326 328 330 330 331 332
228 234 238 244 252 257 261 265 269 273 276 278 281 283 284 286 288 289 291 291 292 293 294 294 295 296 297 297 298 299 300 301 301 302 303 305 306 306 308 308 309 310 310 311 312 313 313 314 315 315 317 319 319 316 316 319 324 327 324 314 311 314 317 320 325 328 324 319 318 321 323 323 324 325 325 326 327 327 329 330 328 325 326 328 330 331 331 332
236 243 248 254 261 265 269 273 275 277 280 282 284 285 287 288 290 291 292 293 293 294 294 295 295 296 296 297 298 299 300 301 302 303 304 305 306 307 308 309 309 310 311 311 312 313 313 313 314 314 315 318 319 317 317 321 327 329 321 312 311 315 318 321 326 329 323 318 317 319 321 322 323 324 324 324 324 325 327 330 328 325 327 329 330 331 331 332